When you browse on this site, cookies collect data to enhance your experience and personalize the content and advertising you see.
Visit our Privacy Policy to learn more. By continuing to use the site, you agree to this use of cookies and data.
  • In Deutschland
  • Länderverzeichnis
  • Für 7 Tage
  • Wassertemperatur
  • Wetterkarte
  • Widgets
  • user-avatar
    Anmelden

    Stündliche Wetter Reding

    Heute, 27 Januar, Montag

    Zeit Temperatur Niederschläge Wind Luftdruck Luftfeuchtigkeit
    00:00 +5°C° 0 mm 4 m/S 750 mmHg 95%
    01:00 +5°C° 0 mm 5 m/S 749 mmHg 94%
    02:00 +5°C° 0 mm 5 m/S 749 mmHg 94%
    03:00 +5°C° 0 mm 5 m/S 749 mmHg 93%
    04:00 +6°C° 0 mm 5 m/S 748 mmHg 92%
    05:00 +6°C° 0 mm 5 m/S 748 mmHg 92%
    06:00 +6°C° 0 mm 5 m/S 748 mmHg 92%
    07:00 +6°C° 0.2 mm 5 m/S 748 mmHg 91%
    08:00 +6°C° 0.2 mm 4 m/S 747 mmHg 90%
    09:00 +6°C° 0.2 mm 4 m/S 747 mmHg 90%
    10:00 +6°C° 0.3 mm 4 m/S 746 mmHg 88%
    11:00 +7°C° 0.3 mm 4 m/S 746 mmHg 86%
    12:00 +7°C° 0.3 mm 5 m/S 746 mmHg 84%
    13:00 +7°C° 0.3 mm 4 m/S 745 mmHg 85%
    14:00 +6°C° 0.3 mm 4 m/S 744 mmHg 85%
    15:00 +6°C° 0.3 mm 4 m/S 743 mmHg 86%
    16:00 +5°C° 0.2 mm 4 m/S 743 mmHg 88%
    17:00 +5°C° 0.2 mm 4 m/S 742 mmHg 90%
    18:00 +4°C° 0.2 mm 4 m/S 742 mmHg 93%
    19:00 +4°C° 0.2 mm 4 m/S 741 mmHg 92%
    20:00 +4°C° 0.2 mm 4 m/S 740 mmHg 90%
    21:00 +4°C° 0.2 mm 4 m/S 740 mmHg 89%
    22:00 +4°C° 0.3 mm 4 m/S 739 mmHg 89%
    23:00 +4°C° 0.3 mm 4 m/S 738 mmHg 89%

    Morgen, 28 Januar, Dienstag

    Zeit Temperatur Niederschläge Wind Luftdruck Luftfeuchtigkeit
    00:00 +4°C° 0.3 mm 4 m/S 738 mmHg 89%
    01:00 +2°C° 0 mm 5 m/S 738 mmHg 87%
    02:00 +2°C° 0 mm 6 m/S 738 mmHg 85%
    03:00 0°C° 0 mm 7 m/S 738 mmHg 83%
    04:00 0°C° 0 mm 8 m/S 739 mmHg 81%
    05:00 -1°C° 0 mm 8 m/S 740 mmHg 78%
    06:00 -1°C° 0 mm 8 m/S 741 mmHg 76%
    07:00 -1°C° 0 mm 8 m/S 742 mmHg 76%
    08:00 -1°C° 0 mm 7 m/S 742 mmHg 75%
    09:00 -1°C° 0 mm 7 m/S 743 mmHg 74%
    10:00 0°C° 0 mm 7 m/S 744 mmHg 72%
    11:00 +2°C° 0 mm 8 m/S 744 mmHg 69%
    12:00 +4°C° 0 mm 8 m/S 744 mmHg 66%
    13:00 +4°C° 0.1 mm 8 m/S 744 mmHg 68%
    14:00 +2°C° 0.1 mm 8 m/S 744 mmHg 70%
    15:00 +3°C° 0.1 mm 7 m/S 744 mmHg 73%
    16:00 +2°C° 0 mm 7 m/S 745 mmHg 74%
    17:00 +1°C° 0 mm 6 m/S 745 mmHg 75%
    18:00 +1°C° 0 mm 6 m/S 746 mmHg 76%
    19:00 -1°C° 0 mm 6 m/S 746 mmHg 78%
    20:00 -1°C° 0 mm 6 m/S 747 mmHg 80%
    21:00 0°C° 0 mm 5 m/S 748 mmHg 82%
    22:00 0°C° 0 mm 5 m/S 748 mmHg 82%
    23:00 0°C° 0 mm 5 m/S 748 mmHg 82%

    übermorgen, 29 Januar, Mittwoch

    Zeit Temperatur Niederschläge Wind Luftdruck Luftfeuchtigkeit
    00:00 0°C° 0 mm 5 m/S 749 mmHg 83%
    01:00 0°C° 0 mm 5 m/S 749 mmHg 82%
    02:00 -1°C° 0 mm 5 m/S 750 mmHg 81%
    03:00 -1°C° 0 mm 5 m/S 751 mmHg 80%
    04:00 -1°C° 0 mm 5 m/S 751 mmHg 81%
    05:00 -1°C° 0 mm 5 m/S 751 mmHg 83%
    06:00 -1°C° 0 mm 4 m/S 752 mmHg 84%
    07:00 -1°C° 0 mm 4 m/S 752 mmHg 84%
    08:00 0°C° 0 mm 5 m/S 753 mmHg 83%
    09:00 0°C° 0 mm 5 m/S 753 mmHg 83%
    10:00 +1°C° 0 mm 5 m/S 754 mmHg 78%
    11:00 +3°C° 0 mm 6 m/S 755 mmHg 73%
    12:00 +4°C° 0 mm 6 m/S 755 mmHg 68%
    13:00 +4°C° 0 mm 6 m/S 755 mmHg 69%
    14:00 +5°C° 0 mm 5 m/S 755 mmHg 71%
    15:00 +5°C° 0 mm 4 m/S 756 mmHg 72%
    16:00 +4°C° 0 mm 4 m/S 756 mmHg 77%
    17:00 +3°C° 0 mm 4 m/S 756 mmHg 82%
    18:00 +1°C° 0 mm 4 m/S 756 mmHg 87%
    19:00 +1°C° 0 mm 4 m/S 756 mmHg 87%
    20:00 +3°C° 0 mm 4 m/S 757 mmHg 87%
    21:00 +3°C° 0 mm 4 m/S 757 mmHg 87%
    22:00 +3°C° 0 mm 4 m/S 757 mmHg 88%
    23:00 +3°C° 0 mm 4 m/S 757 mmHg 89%

    30 Januar, Donnerstag

    Zeit Temperatur Niederschläge Wind Luftdruck Luftfeuchtigkeit
    00:00 +3°C° 0 mm 4 m/S 757 mmHg 90%
    01:00 +3°C° 0 mm 4 m/S 756 mmHg 91%
    02:00 +3°C° 0 mm 4 m/S 756 mmHg 92%
    03:00 +3°C° 0 mm 3 m/S 756 mmHg 93%
    04:00 +3°C° 0 mm 3 m/S 755 mmHg 94%
    05:00 +3°C° 0 mm 3 m/S 755 mmHg 94%
    06:00 +3°C° 0 mm 3 m/S 754 mmHg 94%
    07:00 +3°C° 0 mm 4 m/S 754 mmHg 93%
    08:00 +4°C° 0 mm 4 m/S 754 mmHg 93%
    09:00 +4°C° 0 mm 4 m/S 754 mmHg 92%
    10:00 +5°C° 0 mm 5 m/S 753 mmHg 88%
    11:00 +6°C° 0 mm 5 m/S 752 mmHg 85%
    12:00 +7°C° 0 mm 5 m/S 752 mmHg 82%
    13:00 +7°C° 0 mm 5 m/S 751 mmHg 85%
    14:00 +7°C° 0 mm 5 m/S 750 mmHg 88%
    15:00 +7°C° 0 mm 5 m/S 749 mmHg 92%
    16:00 +7°C° 0 mm 4 m/S 749 mmHg 93%
    17:00 +8°C° 0 mm 3 m/S 749 mmHg 95%
    18:00 +8°C° 0 mm 3 m/S 748 mmHg 97%
    19:00 +8°C° 0 mm 3 m/S 748 mmHg 97%
    20:00 +7°C° 0 mm 4 m/S 748 mmHg 97%
    21:00 +8°C° 0 mm 4 m/S 749 mmHg 97%
    22:00 +8°C° 0 mm 5 m/S 749 mmHg 96%
    23:00 +8°C° 0 mm 5 m/S 750 mmHg 95%

    31 Januar, Freitag

    Zeit Temperatur Niederschläge Wind Luftdruck Luftfeuchtigkeit
    00:00 +8°C° 0 mm 5 m/S 750 mmHg 94%
    01:00 +9°C° 0 mm 5 m/S 750 mmHg 94%
    02:00 +9°C° 0 mm 5 m/S 751 mmHg 94%
    03:00 +9°C° 0 mm 5 m/S 751 mmHg 93%
    04:00 +9°C° 0 mm 5 m/S 751 mmHg 94%
    05:00 +10°C° 0 mm 4 m/S 751 mmHg 95%
    06:00 +10°C° 0 mm 4 m/S 752 mmHg 95%
    07:00 +10°C° 0 mm 4 m/S 752 mmHg 96%
    08:00 +10°C° 0 mm 4 m/S 752 mmHg 96%
    09:00 +10°C° 0 mm 4 m/S 753 mmHg 96%
    10:00 +10°C° 0 mm 5 m/S 753 mmHg 92%
    11:00 +12°C° 0 mm 5 m/S 753 mmHg 89%
    12:00 +13°C° 0 mm 6 m/S 753 mmHg 85%
    13:00 +13°C° 0 mm 6 m/S 753 mmHg 86%
    14:00 +13°C° 0 mm 5 m/S 753 mmHg 86%
    15:00 +13°C° 0 mm 5 m/S 753 mmHg 86%
    16:00 +12°C° 0 mm 5 m/S 753 mmHg 88%
    17:00 +10°C° 0 mm 5 m/S 753 mmHg 91%
    18:00 +10°C° 0 mm 5 m/S 753 mmHg 93%
    19:00 +10°C° 0 mm 5 m/S 753 mmHg 93%
    20:00 +10°C° 0 mm 5 m/S 753 mmHg 94%
    21:00 +10°C° 0 mm 6 m/S 753 mmHg 94%
    22:00 +10°C° 0 mm 5 m/S 753 mmHg 94%
    23:00 +10°C° 0 mm 5 m/S 753 mmHg 94%

    1 Februar, Samstag

    Zeit Temperatur Niederschläge Wind Luftdruck Luftfeuchtigkeit
    00:00 +10°C° 0 mm 5 m/S 752 mmHg 93%
    01:00 +10°C° 0.1 mm 5 m/S 752 mmHg 93%
    02:00 +12°C° 0.1 mm 5 m/S 751 mmHg 93%
    03:00 +11°C° 0.1 mm 6 m/S 750 mmHg 94%
    04:00 +11°C° 0.6 mm 6 m/S 750 mmHg 94%
    05:00 +11°C° 0.6 mm 6 m/S 749 mmHg 94%
    06:00 +11°C° 0.6 mm 6 m/S 749 mmHg 94%
    07:00 +10°C° 0.5 mm 6 m/S 749 mmHg 92%
    08:00 +10°C° 0.5 mm 5 m/S 749 mmHg 91%
    09:00 +10°C° 0.5 mm 5 m/S 749 mmHg 90%
    10:00 +10°C° 0.7 mm 6 m/S 749 mmHg 88%
    11:00 +11°C° 0.7 mm 6 m/S 749 mmHg 86%
    12:00 +12°C° 0.7 mm 7 m/S 749 mmHg 85%
    13:00 +12°C° 0.1 mm 7 m/S 749 mmHg 84%
    14:00 +12°C° 0.1 mm 7 m/S 749 mmHg 83%
    15:00 +12°C° 0.1 mm 8 m/S 749 mmHg 82%
    16:00 +11°C° 0 mm 7 m/S 749 mmHg 84%
    17:00 +10°C° 0 mm 7 m/S 750 mmHg 87%
    18:00 +10°C° 0 mm 7 m/S 750 mmHg 89%
    19:00 +10°C° 0.2 mm 8 m/S 749 mmHg 90%
    20:00 +10°C° 0.2 mm 9 m/S 748 mmHg 90%
    21:00 +11°C° 0.2 mm 10 m/S 748 mmHg 90%
    22:00 +11°C° 1.7 mm 11 m/S 747 mmHg 90%
    23:00 +11°C° 1.7 mm 11 m/S 747 mmHg 90%
    Mehr zeigen